Regional Weather Roundup
Issued by NWS

Home | Current Version | Previous Version | Text Only | Print | Product List | Glossary Off
Versions: 1 2 3 4 5 6 7 8 9 10 11 12 13 14 15 16 17 18 19 20 21 22 23 24 25 26 27 28 29 30 31 32 33 34 35 36 37 38 39 40 41 42 43 44 45 46 47 48 49 50

000
ASUS43 KBIS 281410
RWRND

NORTH DAKOTA REGIONAL WEATHER ROUNDUP
NATIONAL WEATHER SERVICE BISMARCK ND
900 AM CDT THU MAY 28 2015

NOTE: "FAIR" INDICATES FEW OR NO CLOUDS BELOW 12,000 FEET WITH NO
SIGNIFICANT WEATHER AND/OR OBSTRUCTIONS TO VISIBILITY.


NDZ001>003-009>011-017-281500-
NORTHWEST NORTH DAKOTA

CITY           SKY/WX    TMP DP  RH WIND       PRES   REMARKS
WILLISTON      SUNNY     60  56  86 SW7       29.88S
MINOT          CLOUDY    60  57  89 CALM      29.84F
MINOT AFB      CLOUDY    61  61 100 S5        29.84S
$$

NDZ018>021-031>035-040>046-281500-
SOUTHWEST NORTH DAKOTA

CITY           SKY/WX    TMP DP  RH WIND       PRES   REMARKS
BISMARCK       CLOUDY    63  58  83 SW7       29.88S
DICKINSON      MOSUNNY   58  55  90 NW6       29.88F
GARRISON         N/A     61  58  90 SW8       29.85F
HETTINGER ARPT CLOUDY    57  54  89 NW6       29.92S
$$

NDZ004>008-012>016-024-026-027-054-281500-
NORTHEAST NORTH DAKOTA

CITY           SKY/WX    TMP DP  RH WIND       PRES   REMARKS
GRAND FORKS    CLOUDY    60  58  92 SE10      29.90F
GRND FRKS AFB  PTSUNNY   60  57  92 E7        29.90F
DEVILS LAKE    MOSUNNY   63  55  77 SE13      29.88F
$$

NDZ022-023-025-028>030-036>039-047>053-281500-
SOUTHEAST NORTH DAKOTA

CITY           SKY/WX    TMP DP  RH WIND       PRES   REMARKS
FARGO          LGT RAIN  63  59  87 SE9       29.91F FOG
JAMESTOWN      PTSUNNY   64  59  83 SE13      29.88F
$$



USA.gov is the U.S. government's official web portal to all federal, state and local government web resources and services.